Wetbulb
45.83 46.47 47.35 48.50 49.67 50.37 50.46 52.18 55.35 56.60 57.93 59.44 61.10 62.91 63.78 64.28 64.10 62.66 62.47 63.26 63.09 62.64 61.01 61.06 60.34 61.05 61.65 56.60 57.65 57.81 56.84 52.69 50.54 48.49 46.93 47.29 45.56 45.66 44.00 43.29 44.94 43.79 42.56
46.27 46.81 47.14 48.13 49.01 49.20 49.92 50.61 52.73 55.01 56.59 58.44 59.89 61.37 63.22 62.97 60.07 60.68 61.85 59.73 57.60 55.92 55.92 55.38 53.69 55.30 53.83 53.15 52.87 51.09 50.64 51.26 49.66 45.67 45.00 44.17 42.52 42.72 42.58 40.77 43.04 45.39 41.96
46.34 46.16 46.73 47.33 47.58 47.95 49.17 50.43 51.73 54.64 55.63 58.05 60.07 60.12 61.04 61.80 59.23 56.24 54.72 53.92 52.11 51.84 52.18 51.71 51.03 49.54 47.54 48.26 47.70 47.36 47.99 48.72 48.19 44.94 42.89 42.53 40.76 39.71 38.73 39.26 40.32 39.06 45.14
45.88 45.78 45.60 46.31 47.45 48.09 49.21 50.47 51.81 55.53 57.06 57.71 58.60 60.07 59.64 58.19 54.68 53.92 52.26 50.38 49.03 48.08 47.99 47.97 47.84 47.60 46.65 46.22 45.97 45.89 46.49 45.79 44.95 42.98 40.20 39.28 38.73 38.07 38.21 36.79 36.35 38.22 38.52
45.25 45.39 45.67 46.82 47.83 48.60 49.32 50.26 51.18 54.09 56.26 58.09 58.72 58.01 56.10 54.88 55.14 53.62 50.26 48.49 47.81 47.53 48.67 48.83 48.45 49.37 49.52 47.84 45.96 46.02 46.42 44.15 42.79 40.03 37.15 36.93 36.20 36.04 35.99 36.30 35.78 35.08 38.09
44.89 44.82 46.54 47.85 48.57 48.81 49.35 49.93 50.91 52.98 54.03 57.24 56.48 56.54 55.35 54.31 49.99 50.40 49.32 48.18 48.40 48.19 47.32 47.45 48.48 48.87 47.97 48.02 48.22 48.60 47.23 43.14 40.55 38.00 36.18 34.63 34.42 34.74 34.20 35.10 36.04 34.86 34.17
44.45 45.84 46.24 47.22 48.54 47.60 49.02 49.93 49.69 50.84 53.05 55.86 56.26 54.21 51.30 48.84 47.70 47.35 48.65 47.32 45.77 45.73 45.55 45.34 45.70 46.42 46.51 46.49 47.01 46.74 46.19 45.02 42.98 38.81 36.01 35.02 34.65 35.44 35.62 34.94 34.98 34.96 34.71
44.48 45.47 45.06 47.85 46.29 47.17 49.10 48.17 48.15 52.38 53.05 53.14 51.08 49.05 48.28 47.63 46.44 44.76 45.44 44.58 43.76 43.73 44.32 44.54 44.06 42.86 42.90 42.07 41.27 40.47 40.25 40.54 39.92 40.24 38.29 37.23 36.84 36.37 35.71 35.87 35.69 35.95 36.20
42.62 43.18 44.48 45.45 45.25 46.83 48.18 46.83 51.52 49.61 50.19 49.09 48.85 46.65 45.33 45.59 44.70 43.66 43.48 42.39 41.16 41.31 42.13 42.60 42.18 41.97 41.11 40.93 39.58 38.29 37.72 39.55 44.24 43.10 41.53 40.92 39.69 39.52 39.02 37.71 36.32 35.42 33.68
42.09 43.83 44.70 45.07 46.01 47.14 47.91 50.48 49.71 48.48 47.03 46.42 45.51 45.10 44.80 43.74 42.96 42.17 42.37 42.38 40.73 40.68 41.69 42.86 43.44 41.11 40.92 40.98 38.55 37.30 35.00 34.66 36.04 37.47 37.35 38.30 39.10 40.29 42.19 38.51 37.13 35.39 33.29
41.45 43.93 44.22 44.86 46.02 47.49 51.06 49.09 47.55 46.45 45.30 42.79 42.83 43.02 43.11 43.32 42.37 42.05 42.22 42.59 41.70 41.74 41.49 42.41 43.03 40.59 39.15 39.06 39.05 37.46 36.67 37.86 38.59 35.20 34.74 35.80 38.17 39.72 39.69 39.43 38.65 37.44 34.22
42.14 42.98 43.85 45.49 48.12 51.13 48.20 47.59 46.47 44.04 41.87 40.13 39.59 39.84 40.97 41.24 41.65 40.97 40.60 41.44 42.86 40.13 38.81 39.22 39.60 38.41 38.06 38.29 38.88 38.56 38.90 38.89 35.98 34.33 35.82 34.76 36.18 38.16 39.20 39.50 39.11 38.81 39.27
41.47 42.25 44.46 46.76 49.61 48.00 46.02 44.67 43.76 42.49 39.87 38.64 38.43 38.16 38.37 40.17 40.32 40.83 40.01 39.89 40.68 39.97 40.01 39.41 38.75 38.39 39.02 39.87 39.50 38.90 38.52 35.90 34.07 34.13 32.36 32.75 33.53 36.41 39.38 40.05 39.59 42.46 42.45
41.79 43.51 46.63 45.66 45.21 45.37 44.58 44.02 42.33 40.12 38.64 38.42 37.98 37.41 37.66 38.52 38.43 39.05 39.19 39.79 40.30 40.00 40.01 40.41 40.31 39.84 39.77 39.90 39.32 38.81 38.31 37.21 34.36 32.65 31.94 33.41 36.14 37.42 37.07 36.70 37.12 40.68 40.32
44.45 43.19 41.71 40.58 39.15 38.33 39.46 41.27 40.72 40.57 40.67 39.71 38.70 38.11 36.83 36.21 36.35 37.55 38.73 39.44 40.35 39.48 40.17 39.26 38.17 37.72 37.17 37.49 37.67 37.81 37.72 36.90 35.52 34.47 34.85 33.73 33.77 35.51 35.81 35.73 38.96 39.72 38.93
39.71 39.54 39.43 38.73 38.61 38.53 37.72 36.65 37.28 37.82 37.54 37.48 38.14 38.30 37.25 37.11 37.55 37.58 37.31 37.38 37.66 38.06 38.36 37.11 35.93 35.70 35.56 35.46 35.12 35.37 35.24 36.24 35.23 35.74 33.86 33.07 32.22 33.60 34.60 35.63 36.99 38.82 38.50
38.07 38.28 38.23 37.81 37.43 37.07 36.90 35.70 33.31 35.95 37.26 36.81 36.66 36.93 37.46 37.46 37.53 37.60 37.28 36.98 36.26 38.14 37.13 36.24 35.61 35.41 35.06 34.73 33.92 33.66 33.17 33.91 34.41 34.37 34.31 33.41 33.23 33.20 33.49 34.31 35.41 38.74 38.51
38.42 38.59 37.38 37.42 37.42 37.59 37.44 36.46 36.64 34.54 33.83 35.51 37.15 37.83 36.92 37.00 36.67 35.87 35.58 35.92 37.73 37.53 36.64 35.65 34.78 34.76 34.53 33.84 33.78 33.28 33.26 33.41 32.98 32.97 32.68 32.95 31.85 31.72 31.99 31.72 32.34 36.71 38.12
38.19 38.16 38.34 38.09 37.97 37.67 37.29 36.66 36.52 36.22 36.47 36.86 37.53 38.07 38.00 37.11 36.70 37.10 38.01 38.14 36.65 35.77 35.61 34.77 34.03 33.40 32.37 32.40 32.53 32.37 32.17 32.14 31.29 30.80 30.84 31.39 31.59 30.89 30.58 30.95 31.75 34.43 37.14
37.29 37.50 37.13 37.00 37.23 37.06 37.35 37.52 38.02 38.56 38.33 38.18 37.96 36.99 37.01 39.01 37.16 36.38 36.41 36.22 35.13 34.21 33.71 33.08 33.02 33.00 32.72 32.46 32.44 32.31 31.49 31.04 30.19 30.35 30.04 30.59 30.95 30.25 30.06 30.24 30.64 33.91 37.21
37.13 37.41 37.07 37.35 37.64 38.02 38.20 37.96 38.32 38.05 37.93 37.09 35.56 35.18 31.92 36.90 35.22 34.71 34.18 33.74 33.27 32.19 31.64 30.73 29.78 29.66 29.95 31.14 30.35 29.90 29.53 28.89 28.69 29.20 29.05 28.96 29.86 29.42 30.19 30.12 30.38 33.01 37.08
37.43 37.17 37.52 37.49 38.13 38.09 38.16 38.37 38.23 37.71 36.94 36.10 34.62 34.06 32.80 35.92 35.16 34.35 33.50 32.93 32.36 31.55 30.76 29.86 28.89 28.63 28.56 28.09 27.84 26.84 26.93 27.22 27.36 28.04 28.39 28.37 28.94 30.12 29.72 29.95 29.79 30.92 33.94
38.03 37.96 37.60 37.65 38.01 37.23 37.84 37.79 36.15 35.30 35.00 35.17 36.09 36.00 35.73 34.38 33.06 32.25 31.72 31.26 30.70 30.29 29.30 29.12 28.42 27.07 26.77 26.92 26.34 26.07 26.53 25.98 26.40 27.43 28.24 27.95 28.04 28.65 28.56 28.75 29.49 30.13 31.54
38.78 38.53 38.36 38.06 37.83 36.84 35.10 33.22 34.17 34.31 35.77 35.36 35.31 34.69 33.74 33.30 32.48 31.77 31.24 30.42 29.58 28.48 27.62 27.86 27.37 26.59 27.12 27.45 26.93 26.67 26.90 27.02 27.68 28.05 28.40 28.51 27.81 28.90 29.08 28.76 29.29 31.31 31.36
38.52 37.91 37.05 35.66 35.53 35.62 36.01 36.31 36.05 36.04 35.92 35.57 34.84 34.58 34.03 33.45 32.40 31.92 30.98 29.92 29.03 28.37 27.57 27.26 27.24 28.28 28.29 27.92 27.90 28.10 29.01 29.85 29.43 29.35 27.89 28.51 29.18 29.34 28.66 28.86 29.65 30.05 30.67
36.48 36.22 37.77 37.71 37.14 37.08 36.77 36.16 35.93 36.03 35.73 35.55 34.81 34.49 34.06 33.29 32.72 32.22 31.20 29.99 29.07 28.64 28.32 28.57 28.75 28.64 28.37 27.97 28.28 28.76 29.47 29.69 29.37 29.87 28.32 28.66 28.41 28.31 28.70 29.37 30.19 29.79 29.63
MSLP
1010.40 1010.13 1009.82 1009.31 1008.58 1008.04 1007.55 1006.75 1005.90 1005.28 1004.82 1004.38 1004.18 1004.03 1003.47 1003.21 1003.03 1003.30 1003.61 1003.33 1003.43 1003.44 1003.80 1004.38 1005.06 1005.33 1005.27 1005.86 1006.11 1006.61 1007.46 1008.09 1009.33 1010.74 1010.85 1011.05 1011.45 1011.83 1012.07 1012.50 1012.51 1012.56 1011.98
1010.07 1009.77 1009.59 1008.91 1008.40 1007.94 1007.14 1006.42 1005.71 1005.11 1004.39 1004.00 1003.65 1003.51 1003.22 1002.73 1002.90 1002.94 1003.29 1003.59 1003.97 1004.39 1004.56 1004.58 1004.84 1005.57 1006.57 1007.43 1007.21 1007.14 1006.99 1007.73 1008.20 1009.74 1010.70 1011.25 1011.98 1011.86 1012.46 1012.48 1012.81 1012.93 1011.95
1009.66 1009.38 1009.02 1008.43 1008.10 1007.61 1006.95 1006.17 1005.51 1004.84 1004.10 1003.83 1003.55 1003.22 1003.04 1002.86 1002.96 1003.33 1003.58 1003.83 1004.06 1004.47 1004.77 1005.01 1004.98 1005.64 1006.22 1006.96 1007.97 1008.33 1009.02 1008.73 1008.85 1009.38 1011.27 1012.54 1012.22 1012.59 1013.04 1012.66 1013.83 1013.20 1012.41
1009.11 1008.75 1008.43 1007.98 1007.57 1007.15 1006.56 1005.90 1005.41 1004.59 1004.04 1003.51 1003.31 1003.18 1003.07 1003.08 1003.21 1003.62 1004.02 1004.50 1005.09 1005.79 1006.11 1006.32 1006.42 1006.68 1006.93 1007.13 1007.92 1008.68 1009.87 1010.32 1010.36 1011.39 1013.05 1013.53 1013.26 1013.72 1013.41 1013.39 1014.45 1013.44 1013.44
1008.63 1008.25 1007.75 1007.35 1006.92 1006.58 1006.08 1005.60 1005.00 1004.21 1003.64 1003.12 1003.12 1003.36 1003.40 1003.46 1003.74 1004.25 1004.63 1005.15 1005.76 1006.45 1006.92 1007.35 1007.68 1007.83 1008.05 1007.98 1007.71 1009.06 1010.33 1011.01 1011.58 1014.31 1013.47 1014.24 1014.45 1014.38 1014.29 1014.41 1014.38 1014.18 1014.06
1007.97 1007.67 1007.31 1006.93 1006.54 1006.17 1005.85 1005.23 1004.72 1003.94 1003.30 1002.94 1003.21 1003.70 1003.69 1004.03 1004.46 1004.99 1005.27 1006.02 1006.56 1006.95 1007.45 1008.29 1008.76 1008.85 1009.01 1009.09 1009.37 1009.57 1010.27 1011.26 1012.59 1014.12 1013.62 1014.62 1014.67 1014.80 1014.78 1014.75 1014.55 1014.71 1014.83
1007.36 1006.94 1006.64 1006.24 1005.84 1005.79 1005.48 1004.99 1004.43 1003.80 1003.16 1003.23 1003.75 1004.17 1004.88 1005.29 1005.43 1005.73 1006.43 1007.11 1007.73 1008.31 1008.78 1009.16 1009.61 1010.07 1010.62 1010.06 1010.08 1010.99 1010.56 1012.01 1012.35 1012.81 1014.21 1014.66 1014.58 1014.73 1015.03 1014.83 1014.79 1015.00 1015.04
1006.40 1006.14 1006.08 1005.78 1005.53 1005.47 1005.07 1004.62 1004.20 1003.88 1003.54 1004.13 1004.64 1005.13 1005.78 1006.50 1006.23 1006.46 1007.20 1008.06 1008.76 1009.48 1009.83 1010.02 1010.57 1011.22 1011.83 1011.70 1010.77 1011.66 1012.07 1012.73 1013.22 1013.76 1013.45 1013.89 1014.39 1014.55 1014.77 1014.79 1014.72 1014.69 1014.85
1005.96 1005.72 1005.60 1005.40 1005.24 1005.07 1004.72 1004.45 1004.28 1004.22 1004.45 1004.98 1005.66 1006.17 1006.60 1007.45 1007.29 1007.30 1007.57 1008.77 1009.79 1010.31 1010.84 1011.24 1011.56 1011.68 1011.87 1011.87 1011.67 1012.33 1013.36 1014.13 1014.16 1013.88 1013.79 1014.36 1014.53 1014.57 1014.74 1015.07 1014.98 1014.47 1015.05
1005.26 1005.01 1004.95 1004.86 1004.79 1004.57 1004.51 1004.41 1004.53 1004.67 1005.35 1006.01 1006.84 1007.42 1007.73 1008.08 1008.64 1008.27 1008.48 1009.28 1010.22 1011.14 1011.72 1011.94 1012.22 1011.79 1012.56 1012.62 1013.04 1013.28 1013.76 1014.71 1014.86 1014.67 1014.75 1014.81 1014.71 1014.89 1014.90 1015.25 1014.99 1014.86 1015.34
1004.89 1004.65 1004.34 1004.37 1004.28 1004.17 1004.26 1004.54 1004.81 1005.38 1006.21 1007.09 1008.03 1008.70 1008.72 1009.24 1009.74 1009.49 1009.82 1010.21 1010.75 1011.63 1012.41 1012.73 1012.70 1012.73 1013.38 1013.57 1013.88 1014.38 1014.09 1014.95 1015.69 1015.24 1015.40 1015.28 1015.59 1015.60 1015.68 1015.65 1015.24 1015.10 1015.30
1004.28 1004.13 1003.99 1003.71 1003.62 1003.55 1004.17 1004.90 1005.33 1006.08 1007.04 1008.28 1008.91 1009.62 1010.55 1010.86 1010.68 1010.76 1010.71 1011.01 1011.73 1012.26 1013.28 1013.83 1013.86 1013.36 1013.89 1013.99 1014.49 1014.71 1014.64 1015.44 1016.25 1015.87 1015.48 1016.66 1016.60 1016.30 1016.20 1016.23 1015.75 1015.33 1015.05
1003.79 1003.65 1003.38 1003.40 1003.16 1003.86 1004.41 1005.27 1006.16 1006.89 1007.84 1009.15 1009.45 1010.58 1011.50 1011.84 1012.07 1011.93 1011.86 1012.05 1012.71 1013.19 1013.17 1014.27 1014.63 1014.55 1014.49 1014.77 1014.95 1015.25 1015.52 1016.05 1016.97 1016.01 1016.90 1017.30 1016.98 1016.76 1016.46 1016.39 1015.79 1015.35 1015.23
1003.15 1003.19 1003.22 1003.33 1004.05 1004.79 1005.54 1006.19 1006.85 1007.73 1008.41 1009.34 1010.46 1011.36 1012.08 1012.57 1012.88 1013.09 1013.20 1013.44 1013.68 1013.75 1014.45 1015.11 1015.45 1015.46 1015.35 1015.85 1016.16 1016.44 1016.68 1016.88 1017.11 1017.57 1017.74 1017.37 1017.10 1016.98 1016.61 1016.56 1016.13 1015.71 1015.87
1002.67 1003.27 1003.82 1004.70 1005.26 1006.17 1006.96 1007.68 1008.16 1008.93 1009.00 1009.56 1010.78 1011.34 1011.91 1012.86 1013.89 1014.17 1014.26 1014.46 1014.24 1014.34 1015.23 1015.65 1016.04 1016.04 1016.61 1017.13 1017.13 1017.34 1017.62 1017.76 1017.88 1018.06 1017.90 1017.80 1017.97 1017.34 1017.32 1016.99 1016.59 1016.41 1016.31
1003.73 1004.36 1005.16 1005.77 1006.51 1007.22 1007.91 1009.21 1010.12 1010.32 1010.75 1011.22 1011.59 1012.01 1013.00 1013.73 1014.48 1014.79 1015.12 1015.15 1015.40 1015.78 1016.16 1016.41 1016.84 1017.26 1017.59 1017.81 1018.07 1018.41 1018.57 1018.47 1018.68 1018.39 1018.52 1018.52 1018.10 1018.01 1017.98 1017.66 1016.99 1016.67 1016.82
1004.81 1005.70 1006.43 1006.90 1007.60 1008.22 1009.02 1009.66 1010.83 1012.51 1012.56 1012.89 1013.21 1013.75 1014.35 1014.82 1015.43 1015.63 1015.61 1015.81 1015.82 1016.22 1016.77 1017.28 1017.73 1018.13 1018.49 1018.83 1019.12 1019.38 1019.54 1019.20 1019.14 1019.30 1019.01 1018.94 1018.56 1018.58 1018.84 1018.15 1017.58 1017.18 1017.19
1006.24 1006.91 1007.45 1008.16 1008.68 1009.38 1010.01 1010.75 1011.36 1012.41 1013.49 1014.70 1015.10 1015.28 1015.57 1015.83 1016.20 1016.42 1016.54 1016.49 1016.62 1017.29 1017.57 1018.30 1018.89 1019.27 1019.50 1019.65 1019.96 1020.00 1020.19 1019.84 1019.73 1019.88 1019.60 1019.64 1019.64 1019.31 1018.92 1018.71 1018.35 1017.86 1017.68
1007.46 1008.21 1008.69 1009.27 1009.97 1010.43 1011.18 1011.97 1012.50 1013.34 1014.36 1015.22 1015.92 1016.33 1016.60 1016.62 1016.63 1016.82 1017.10 1017.40 1017.74 1018.37 1018.64 1019.15 1019.74 1020.20 1020.46 1020.71 1021.02 1021.29 1021.24 1020.46 1020.15 1020.58 1020.81 1020.58 1020.06 1019.57 1019.62 1019.32 1018.74 1018.47 1018.30
1009.08 1009.47 1009.74 1010.40 1011.26 1011.94 1012.47 1013.01 1013.70 1014.36 1014.99 1015.75 1016.47 1016.99 1017.06 1017.08 1017.64 1018.21 1018.53 1018.57 1018.77 1019.39 1019.91 1020.50 1020.91 1021.33 1021.65 1021.79 1021.67 1021.47 1021.32 1021.47 1021.50 1021.78 1021.49 1020.93 1020.57 1020.46 1020.15 1019.89 1019.56 1019.26 1019.11
1010.37 1010.99 1011.16 1011.71 1012.52 1013.21 1013.76 1014.31 1014.85 1015.36 1016.19 1017.09 1017.58 1017.89 1018.04 1018.31 1018.82 1019.25 1019.48 1019.76 1020.08 1020.68 1021.12 1021.55 1022.11 1022.39 1022.46 1022.49 1022.52 1022.56 1022.27 1022.37 1022.47 1022.25 1022.04 1021.90 1021.46 1021.05 1020.67 1020.27 1020.17 1019.97 1019.86
1011.54 1012.21 1012.76 1013.15 1013.70 1014.31 1014.80 1015.30 1015.99 1016.62 1017.25 1017.70 1018.23 1018.59 1018.79 1019.19 1019.75 1020.17 1020.65 1021.13 1021.59 1021.86 1022.23 1022.53 1023.10 1023.35 1023.21 1023.19 1023.23 1023.25 1023.33 1023.33 1023.25 1023.15 1022.71 1022.25 1021.85 1021.60 1021.30 1021.30 1021.19 1021.02 1020.75
1012.66 1013.13 1013.97 1014.56 1014.90 1015.39 1016.02 1016.64 1017.17 1017.61 1018.01 1018.46 1018.97 1019.46 1019.87 1020.48 1021.01 1021.48 1021.96 1022.34 1022.68 1023.08 1023.41 1023.63 1023.90 1024.19 1024.24 1024.20 1024.09 1023.94 1023.98 1024.06 1023.95 1023.63 1023.22 1022.88 1022.54 1022.46 1022.38 1022.32 1022.21 1021.94 1021.68
1013.55 1013.98 1014.61 1015.21 1015.86 1016.46 1016.96 1017.38 1017.81 1018.30 1018.84 1019.40 1019.88 1020.44 1021.00 1021.55 1022.03 1022.55 1023.04 1023.49 1023.81 1024.29 1024.62 1024.76 1024.85 1024.86 1024.63 1024.37 1024.41 1024.55 1024.46 1024.29 1024.06 1023.78 1023.41 1023.31 1023.32 1023.22 1023.17 1023.15 1022.93 1022.55 1022.33
1014.65 1015.23 1015.79 1016.19 1016.63 1017.07 1017.55 1018.08 1018.63 1019.17 1019.69 1020.17 1020.80 1021.38 1021.98 1022.44 1022.96 1023.49 1023.96 1024.44 1024.86 1025.12 1025.40 1025.54 1025.46 1025.16 1025.03 1025.25 1025.18 1024.87 1024.64 1024.47 1024.23 1023.97 1023.84 1023.80 1023.97 1024.04 1023.94 1023.73 1023.44 1023.16 1022.83
1015.69 1016.14 1016.43 1016.92 1017.40 1017.92 1018.45 1018.95 1019.46 1019.96 1020.49 1021.07 1021.70 1022.23 1022.72 1023.32 1023.97 1024.52 1024.99 1025.32 1025.62 1025.91 1026.01 1025.88 1025.80 1025.84 1025.89 1025.82 1025.74 1025.55 1025.27 1025.03 1024.83 1024.66 1024.45 1024.40 1024.51 1024.46 1024.36 1024.18 1024.00 1023.81 1023.54
Wind_Speed
5 6 7 9 12 12 9 11 11 7 8 6 6 10 12 7 7 4 4 6 6 3 4 4 2 4 8 7 6 6 7 6 6 3 2 3 3 5 5 4 5 4 4
6 7 9 9 10 11 11 11 13 11 8 6 6 9 10 7 2 4 6 5 8 8 9 10 10 6 9 9 6 1 7 4 5 13 4 3 3 5 4 6 4 4 4
5 6 10 10 10 10 12 11 13 12 8 7 6 9 4 3 5 7 8 8 8 7 7 8 9 10 10 10 10 10 9 7 6 11 7 3 4 3 4 4 4 4 6
7 8 9 10 11 10 11 11 12 11 5 5 4 4 3 5 7 8 7 8 8 8 8 8 9 12 14 15 14 10 11 9 10 8 5 3 4 3 3 4 3 5 5
8 10 11 10 10 11 11 10 11 8 4 1 3 2 2 4 4 6 6 10 12 13 11 10 9 14 18 15 12 13 13 8 10 4 4 2 2 3 4 3 2 1 3
10 11 12 11 10 9 11 9 9 7 3 3 3 2 2 4 11 13 12 13 12 13 14 13 12 18 20 23 23 20 14 10 8 2 3 2 1 1 1 1 2 3 3
12 12 10 14 7 10 11 9 8 6 0 4 5 6 8 9 19 20 19 12 12 12 12 12 12 11 12 10 15 13 15 12 9 9 6 3 2 2 2 1 1 2 2
13 11 10 12 9 11 11 8 6 1 6 6 8 10 11 9 21 25 24 15 14 13 13 14 13 11 6 6 12 11 11 8 6 4 6 5 3 3 3 1 2 3 2
10 12 13 13 9 12 9 6 1 7 9 10 9 11 13 10 18 22 21 16 15 15 11 10 8 8 8 6 11 12 9 5 5 6 4 3 5 6 3 2 3 4 3
12 9 10 9 10 11 7 5 6 11 12 11 13 11 16 13 14 19 18 13 14 10 8 8 14 10 9 12 7 6 8 1 1 3 3 4 7 6 7 2 2 5 2
9 10 8 9 10 8 4 8 11 13 15 15 14 12 14 14 13 18 17 12 10 11 10 7 6 12 11 11 7 2 6 4 3 5 5 5 5 5 4 3 4 4 3
9 8 9 10 9 6 12 11 14 15 17 14 15 13 10 11 19 20 22 19 16 12 9 5 4 13 10 10 8 10 12 7 3 3 6 4 3 3 2 3 3 4 4
8 9 8 8 9 12 14 13 12 13 13 12 12 11 9 9 11 21 22 23 21 13 10 8 9 9 12 15 16 15 11 6 3 7 5 1 1 2 1 1 2 3 4
7 6 4 13 13 12 9 9 10 11 12 13 11 10 10 10 9 9 11 12 14 9 11 8 9 12 15 12 11 10 7 6 5 3 2 2 1 2 4 3 3 4 5
6 12 14 12 15 15 13 9 9 8 9 13 11 11 12 11 7 10 9 7 6 10 7 8 7 9 9 7 8 8 7 6 6 3 5 4 3 3 4 4 3 2 5
13 11 11 11 12 12 14 15 27 23 21 17 14 12 9 16 15 14 14 14 11 4 4 8 8 7 7 7 7 6 5 8 4 5 5 3 4 3 4 4 2 4 3
15 13 12 13 11 12 12 15 16 18 26 23 23 20 18 17 15 11 10 7 8 10 8 8 8 7 7 6 5 4 3 4 4 5 6 6 5 5 3 3 4 3 3
16 21 12 11 11 12 12 12 13 15 14 12 16 14 16 16 13 10 6 1 10 8 8 8 7 6 5 5 4 4 5 5 5 6 6 5 4 3 4 4 4 4 4
13 12 12 11 11 15 14 14 14 15 14 11 9 10 9 7 10 14 12 8 9 8 8 9 7 6 5 5 4 4 3 5 6 5 5 4 5 4 5 4 5 7 5
15 23 17 13 13 14 13 14 13 14 13 11 9 6 3 10 9 8 7 9 10 9 9 8 7 7 6 5 6 7 8 8 6 4 5 6 6 4 5 5 5 4 4
11 13 20 14 13 13 12 13 12 12 13 9 5 5 8 8 8 8 9 9 10 9 8 8 7 6 5 6 5 5 7 6 5 6 5 5 5 5 4 5 5 5 4
12 12 12 13 13 13 13 12 12 11 8 7 5 5 8 9 9 10 10 10 9 9 7 8 7 6 6 5 5 5 5 6 6 5 5 5 5 6 5 5 5 5 5
14 16 15 13 13 15 13 10 8 6 7 7 9 9 10 10 9 10 9 9 9 8 7 6 6 5 4 4 4 5 5 4 4 3 5 5 5 6 5 5 5 5 4
15 17 17 14 11 10 7 6 7 10 10 10 10 10 10 9 9 10 9 8 8 7 5 5 5 5 5 7 6 5 4 3 2 4 6 6 6 6 5 5 4 6 4
13 13 10 7 7 9 10 10 10 10 10 10 10 10 9 9 10 9 8 7 6 6 6 4 4 8 11 10 8 8 7 6 6 5 5 6 8 8 5 4 5 4 7
7 7 10 8 8 9 9 10 10 9 10 9 9 8 9 9 8 8 6 6 6 6 6 6 9 11 10 8 9 9 9 9 7 7 5 5 5 5 5 6 8 5 6
Wind_Direction
308 307 307 304 309 307 305 308 294 277 277 291 295 302 291 250 249 232 235 243 222 115 88 164 211 257 205 172 166 171 175 154 151 161 133 124 108 100 71 41 40 16 8
302 312 301 296 300 304 304 306 307 291 282 281 299 307 292 298 15 130 118 102 106 113 126 125 102 95 46 5 3 319 163 175 142 137 114 91 93 79 83 65 20 356 30
286 290 295 297 299 298 299 302 306 296 283 307 323 315 278 171 106 99 121 128 118 109 109 109 116 109 96 96 66 39 20 18 76 108 91 339 64 59 63 57 6 349 42
289 288 286 289 289 292 293 295 299 286 293 321 9 314 195 128 129 138 135 113 92 71 67 81 100 108 106 90 76 59 53 59 56 53 45 11 57 13 45 75 11 26 29
291 291 288 284 283 288 296 293 294 281 285 278 128 252 143 108 133 134 88 91 96 93 81 76 82 96 97 105 117 112 82 65 71 17 85 25 25 34 48 310 60 342 358
278 273 281 272 275 287 292 291 296 278 289 166 153 185 111 75 82 82 89 97 89 88 84 75 79 88 96 99 103 104 118 117 106 162 63 117 124 83 42 321 49 45 11
274 270 284 289 280 292 293 285 288 291 44 101 89 76 63 78 95 93 90 86 89 87 90 91 81 68 62 83 92 100 105 125 132 129 128 154 94 167 181 49 69 148 150
272 264 280 279 286 293 284 276 289 6 79 80 80 82 86 93 99 97 91 85 80 78 85 94 95 85 79 106 96 87 82 79 92 132 122 137 145 153 84 150 228 123 68
279 276 277 266 273 278 283 289 197 98 81 80 87 91 97 91 103 104 101 93 91 87 86 85 89 90 101 72 90 93 70 50 74 91 96 149 113 98 84 79 4 71 43
257 267 269 268 263 269 271 123 110 91 87 88 83 86 92 94 89 99 104 106 102 96 83 82 57 85 60 56 71 90 102 49 70 64 30 25 34 53 104 64 126 71 44
265 263 261 264 264 250 152 125 111 101 95 85 87 79 82 89 89 92 98 100 102 101 92 85 84 71 69 83 88 100 101 100 73 95 65 46 64 69 67 52 50 101 109
253 258 258 254 259 156 126 119 112 106 100 96 95 86 79 90 96 90 88 86 92 93 87 66 54 84 93 81 78 79 78 82 59 66 67 32 61 78 54 75 80 86 85
240 244 252 269 124 121 120 114 108 108 106 108 99 100 99 99 93 97 94 93 93 94 89 76 59 74 83 72 67 64 65 62 66 57 40 15 50 205 154 346 8 20 44
231 230 182 98 92 88 92 102 112 115 112 111 115 115 116 112 107 105 103 103 103 89 73 90 93 87 76 67 61 56 57 56 57 68 13 32 82 23 39 351 20 22 37
131 104 93 88 88 82 68 73 91 83 104 129 127 131 133 120 116 116 110 110 87 81 62 92 85 77 71 70 62 54 49 49 45 21 50 39 34 41 15 351 353 58 57
95 91 96 96 93 93 93 81 58 69 72 78 91 110 97 107 119 103 104 101 110 109 93 92 80 80 82 73 69 61 42 47 30 39 35 41 47 44 16 345 356 49 54
97 96 94 94 98 103 102 103 100 74 71 77 88 92 99 112 101 89 72 74 72 83 88 85 86 85 79 69 63 64 68 37 41 40 42 29 23 30 357 3 355 21 33
91 92 93 96 99 101 103 105 108 110 105 95 71 87 74 77 72 56 14 118 91 80 92 94 90 85 82 73 57 50 36 47 47 38 32 24 17 27 22 9 1 6 28
92 92 95 94 93 98 101 100 102 106 106 106 105 83 82 84 102 70 72 86 93 87 81 73 70 71 63 55 48 51 52 50 47 34 15 14 21 38 21 8 7 15 38
86 98 100 99 102 101 104 111 109 108 104 100 91 68 48 84 80 63 68 82 80 77 74 72 60 53 61 65 60 46 42 35 32 19 19 24 19 31 28 18 23 7 19
92 93 102 97 101 105 105 102 105 105 105 102 80 60 37 85 90 85 80 72 75 75 75 69 61 53 46 56 56 58 51 40 27 24 18 9 8 19 10 27 25 17 13
94 94 93 96 101 102 106 104 105 105 107 107 72 53 77 84 82 80 76 73 73 72 70 76 65 55 45 41 41 56 55 42 28 10 14 17 21 22 26 21 14 18 7
100 105 101 102 104 103 102 100 95 93 97 93 92 91 84 82 82 79 77 72 68 65 52 63 72 64 47 53 51 54 63 38 355 333 32 26 28 23 24 26 16 18 5
105 107 113 112 100 99 94 92 91 86 93 93 91 88 88 88 87 84 81 79 74 63 56 65 66 76 67 52 42 36 36 11 0 32 48 45 36 21 32 25 19 23 12
108 108 107 103 98 101 100 95 96 97 96 95 93 92 93 91 89 87 84 80 82 82 68 66 65 57 52 44 37 34 23 25 38 28 42 49 50 39 33 28 22 19 21
89 86 97 93 92 95 100 100 98 98 98 98 96 97 97 94 94 96 94 92 92 90 90 72 61 57 49 37 29 27 29 29 28 19 42 56 54 42 42 38 31 21 16